Location: Eschentzwiller
(47.7125°N, 7.3981°E)
Time: 01:29:30
(UTC+00:00)

Cosmos 1408 - Pass Details

Date: 27 October 2020
Orbit: 470 x 492 km, 82.6° (Epoch: 26 November)

Event Time Altitude Azimuth Distance (km) Brightness Sun altitude
Rises 17:28:52 0° 360° (N) 2,554 6.2 -12.1°
Reaches altitude 10° 17:31:11 10° 12° (NNE) 1,673 5.1 -12.5°
Maximum altitude 17:34:23 28° 73° (ENE) 938 3.4 -13.0°
Enters shadow 17:36:35 16° 124° (SE) 1,336 4.3 -13.4°
